Chippewa, MI

12:19 AM EDT on April 26, 2018 (GMT -0400)
Chippewa County International

Weather History for KCIU - May, 2013

Change the Weather History Date:

Thursday, May 23, 2013

  Actual Average Record
Temperature  
Mean Temperature 45 °F -  
Max Temperature 51 °F 69 °F 85 °F (1980)
Min Temperature 39 °F 42 °F 30 °F (2015)
Degree Days  
Heating Degree Days 20    
Moisture  
Dew Point 36 °F    
Average Humidity 75    
Maximum Humidity 100    
Minimum Humidity 50    
Precipitation  
Precipitation 0.44 in - - ()
Sea Level Pressure  
Sea Level Pressure 30.02 in    
Wind  
Wind Speed 15 mph (NNW)    
Max Wind Speed 26 mph    
Max Gust Speed 32 mph    
Visibility 10 miles    
Events      
Averages and records for this station are not official NWS values.
T = Trace of Precipitation, MM = Missing Value Source: NWS Daily Summary

Daily Weather History Graph

Daily Weather History Graph

Search for Another Location

Airport or City:

Astronomy

May. 23, 2013 Rise Set
Actual Time 5:56 AM EDT 9:13 PM EDT
Civil Twilight 5:19 AM EDT 9:50 PM EDT
Nautical Twilight 4:32 AM EDT 10:38 PM EDT
Astronomical Twilight 3:32 AM EDT 11:38 PM EDT
Moon 7:41 PM EDT (5/23) 4:46 AM EDT (5/23)
Length of Visible Light 16h 30m
Length of Day
15h 17m
Waxing Gibbous, 97% of the Moon is Illuminated
May 23
Waxing Gibbous
May 25
Full
May 31
Last Quarter
Jun 8
New
Jun 16
First Quarter

Hourly Weather History & Observations

Time (EDT) Temp. Windchill Dew Point Humidity Pressure Visibility Wind Dir Wind Speed Gust Speed Precip Events Conditions
12:15 AM 51.8 °F - 51.8 °F 100% 29.79 in 10.0 mi NNW 10.4 mph - 0.02 in   Mostly Cloudy
12:35 AM 51.8 °F - 51.8 °F 100% 29.80 in 10.0 mi NNW 12.7 mph 18.4 mph 0.07 in   Overcast
12:55 AM 50.0 °F - 48.2 °F 94% 29.81 in 10.0 mi North 13.8 mph 20.7 mph 0.11 in   Overcast
1:15 AM 50.0 °F - 48.2 °F 94% 29.82 in 10.0 mi North 15.0 mph - 0.04 in   Mostly Cloudy
1:35 AM 48.2 °F - 48.2 °F 100% 29.83 in 10.0 mi North 18.4 mph - 0.11 in   Overcast
1:55 AM 48.2 °F - 48.2 °F 100% 29.83 in 10.0 mi North 13.8 mph 20.7 mph 0.16 in   Overcast
2:15 AM 48.2 °F - 46.4 °F 93% 29.84 in 10.0 mi North 11.5 mph - 0.04 in   Mostly Cloudy
2:35 AM 48.2 °F - 46.4 °F 93% 29.84 in 10.0 mi North 12.7 mph 18.4 mph 0.06 in   Overcast
2:55 AM 46.4 °F 40.1 °F 46.4 °F 100% 29.84 in 10.0 mi North 15.0 mph 23.0 mph 0.08 in   Overcast
3:15 AM 44.6 °F 37.2 °F 44.6 °F 100% 29.84 in 10.0 mi North 17.3 mph 26.5 mph 0.01 in   Overcast
3:35 AM 44.6 °F 37.2 °F 42.8 °F 93% 29.85 in 10.0 mi North 17.3 mph 21.9 mph 0.02 in   Overcast
3:55 AM 44.6 °F 36.9 °F 42.8 °F 93% 29.85 in 10.0 mi North 18.4 mph 24.2 mph 0.02 in   Overcast
4:15 AM 42.8 °F 35.1 °F 41.0 °F 93% 29.85 in 10.0 mi North 16.1 mph 21.9 mph 0.01 in   Overcast
4:35 AM 42.8 °F 34.3 °F 39.2 °F 87% 29.85 in 10.0 mi North 19.6 mph 23.0 mph 0.02 in   Overcast
4:55 AM 42.8 °F 35.1 °F 39.2 °F 87% 29.87 in 10.0 mi North 16.1 mph 21.9 mph 0.02 in   Overcast
5:15 AM 42.8 °F 36.2 °F 41.0 °F 93% 29.88 in 10.0 mi North 12.7 mph - 0.01 in   Overcast
5:35 AM 42.8 °F 36.2 °F 41.0 °F 93% 29.88 in 10.0 mi North 12.7 mph 17.3 mph 0.01 in   Overcast
5:55 AM 41.0 °F 34.3 °F 41.0 °F 100% 29.89 in 10.0 mi North 11.5 mph - 0.01 in   Mostly Cloudy
6:15 AM 41.0 °F 33.5 °F 39.2 °F 93% 29.90 in 10.0 mi North 13.8 mph - 0.02 in   Overcast
6:35 AM 41.0 °F 34.3 °F 39.2 °F 93% 29.91 in 10.0 mi North 11.5 mph - 0.03 in   Overcast
6:55 AM 39.2 °F 31.2 °F 39.2 °F 100% 29.92 in 10.0 mi North 13.8 mph - 0.04 in   Overcast
7:15 AM 39.2 °F 32.5 °F 37.4 °F 93% 29.93 in 10.0 mi North 10.4 mph - N/A   Overcast
7:35 AM 39.2 °F 31.2 °F 37.4 °F 93% 29.94 in 10.0 mi North 13.8 mph 19.6 mph N/A   Overcast
7:55 AM 39.2 °F 32.0 °F 37.4 °F 93% 29.96 in 10.0 mi North 11.5 mph 18.4 mph N/A   Overcast
8:15 AM 39.2 °F 32.0 °F 37.4 °F 93% 29.97 in 10.0 mi North 11.5 mph - N/A   Overcast
8:35 AM 39.2 °F 32.5 °F 37.4 °F 93% 29.98 in 10.0 mi NNW 10.4 mph - N/A   Overcast
8:55 AM 39.2 °F 31.6 °F 37.4 °F 93% 29.99 in 10.0 mi NNW 12.7 mph - N/A   Mostly Cloudy
9:15 AM 39.2 °F 31.2 °F 35.6 °F 87% 29.99 in 10.0 mi North 13.8 mph 21.9 mph N/A   Scattered Clouds
9:35 AM 39.2 °F 31.2 °F 35.6 °F 87% 30.01 in 10.0 mi North 13.8 mph 20.7 mph N/A   Scattered Clouds
9:55 AM 41.0 °F 33.5 °F 33.8 °F 76% 30.02 in 10.0 mi North 13.8 mph 21.9 mph N/A   Partly Cloudy
10:15 AM 41.0 °F 33.9 °F 33.8 °F 76% 30.03 in 10.0 mi North 12.7 mph - N/A   Scattered Clouds
10:35 AM 42.8 °F 35.8 °F 30.2 °F 61% 30.03 in 10.0 mi North 13.8 mph - N/A   Scattered Clouds
10:55 AM 42.8 °F 35.1 °F 30.2 °F 61% 30.04 in 10.0 mi NNW 16.1 mph 21.9 mph N/A   Clear
11:15 AM 41.0 °F 31.9 °F 30.2 °F 65% 30.04 in 10.0 mi NNW 19.6 mph 26.5 mph N/A   Clear
11:35 AM 44.6 °F 37.2 °F 32.0 °F 61% 30.04 in 10.0 mi North 17.3 mph 23.0 mph N/A   Clear
11:55 AM 42.8 °F 34.5 °F 30.2 °F 61% 30.05 in 10.0 mi NNW 18.4 mph 26.5 mph N/A   Clear
12:15 PM 44.6 °F 37.2 °F 32.0 °F 61% 30.06 in 10.0 mi NNW 17.3 mph 23.0 mph N/A   Clear
12:35 PM 44.6 °F 36.4 °F 32.0 °F 61% 30.06 in 10.0 mi NNW 20.7 mph 25.3 mph N/A   Clear
12:55 PM 44.6 °F 37.2 °F 33.8 °F 66% 30.07 in 10.0 mi NNW 17.3 mph 31.1 mph N/A   Clear
1:15 PM 44.6 °F 36.4 °F 32.0 °F 61% 30.07 in 10.0 mi NW 20.7 mph 28.8 mph N/A   Clear
1:35 PM 44.6 °F 36.4 °F 32.0 °F 61% 30.07 in 10.0 mi NW 20.7 mph 29.9 mph N/A   Clear
1:55 PM 44.6 °F 35.7 °F 32.0 °F 61% 30.07 in 10.0 mi NNW 24.2 mph 28.8 mph N/A   Clear
2:15 PM 44.6 °F 35.7 °F 30.2 °F 57% 30.07 in 10.0 mi NW 24.2 mph 31.1 mph N/A   Clear
2:35 PM 46.4 °F 39.0 °F 32.0 °F 57% 30.08 in 10.0 mi NW 19.6 mph 29.9 mph N/A   Clear
2:55 PM 46.4 °F 38.7 °F 33.8 °F 62% 30.08 in 10.0 mi WNW 20.7 mph 28.8 mph N/A   Clear
3:15 PM 46.4 °F 38.7 °F 32.0 °F 57% 30.09 in 10.0 mi NNW 20.7 mph 26.5 mph N/A   Clear
3:35 PM 48.2 °F - 33.8 °F 58% 30.09 in 10.0 mi NNW 18.4 mph 28.8 mph N/A   Clear
3:55 PM 46.4 °F 38.1 °F 32.0 °F 57% 30.08 in 10.0 mi NW 24.2 mph 31.1 mph N/A   Clear
4:15 PM 48.2 °F - 33.8 °F 58% 30.09 in 10.0 mi NNW 23.0 mph 32.2 mph N/A   Clear
4:35 PM 48.2 °F - 32.0 °F 54% 30.09 in 10.0 mi NW 25.3 mph 31.1 mph N/A   Clear
4:55 PM 48.2 °F - 32.0 °F 54% 30.09 in 10.0 mi NW 21.9 mph 32.2 mph N/A   Clear
5:15 PM 48.2 °F - 32.0 °F 54% 30.10 in 10.0 mi NW 20.7 mph 29.9 mph N/A   Clear
5:35 PM 48.2 °F - 32.0 °F 54% 30.10 in 10.0 mi NW 25.3 mph 29.9 mph N/A   Clear
5:55 PM 48.2 °F - 32.0 °F 54% 30.10 in 10.0 mi NNW 21.9 mph 27.6 mph N/A   Clear
6:15 PM 48.2 °F - 30.2 °F 50% 30.11 in 10.0 mi NW 20.7 mph 29.9 mph N/A   Clear
6:35 PM 48.2 °F - 30.2 °F 50% 30.11 in 10.0 mi NW 26.5 mph 31.1 mph N/A   Clear
6:55 PM 48.2 °F - 30.2 °F 50% 30.12 in 10.0 mi NW 23.0 mph 31.1 mph N/A   Clear
7:15 PM 46.4 °F 38.1 °F 30.2 °F 53% 30.12 in 10.0 mi NW 24.2 mph 32.2 mph N/A   Clear
7:35 PM 46.4 °F 39.2 °F 30.2 °F 53% 30.15 in 10.0 mi NNW 18.4 mph 27.6 mph N/A   Clear
7:55 PM 46.4 °F 39.8 °F 30.2 °F 53% 30.15 in 10.0 mi NW 16.1 mph 24.2 mph N/A   Clear
8:15 PM 46.4 °F 39.8 °F 32.0 °F 57% 30.16 in 10.0 mi NW 16.1 mph - N/A   Clear
8:35 PM 44.6 °F 37.2 °F 32.0 °F 61% 30.17 in 10.0 mi NNW 17.3 mph 20.7 mph N/A   Clear
8:55 PM 42.8 °F 35.8 °F 33.8 °F 70% 30.18 in 10.0 mi NW 13.8 mph - N/A   Clear
9:15 PM 42.8 °F 36.6 °F 33.8 °F 70% 30.19 in 10.0 mi NW 11.5 mph - N/A   Clear
9:35 PM 41.0 °F 35.2 °F 33.8 °F 76% 30.19 in 10.0 mi NW 9.2 mph - N/A   Clear
9:55 PM 41.0 °F 35.8 °F 33.8 °F 76% 30.21 in 10.0 mi NNW 8.1 mph - N/A   Clear
10:15 PM 39.2 °F 34.2 °F 33.8 °F 81% 30.22 in 10.0 mi NNW 6.9 mph - N/A   Clear
10:35 PM 39.2 °F 34.2 °F 33.8 °F 81% 30.22 in 10.0 mi NNW 6.9 mph - N/A   Clear
10:55 PM 39.2 °F 34.2 °F 33.8 °F 81% 30.23 in 10.0 mi North 6.9 mph - N/A   Clear
11:15 PM 41.0 °F 35.8 °F 30.2 °F 65% 30.24 in 10.0 mi North 8.1 mph - N/A   Clear
11:35 PM 41.0 °F 34.7 °F 28.4 °F 61% 30.24 in 10.0 mi North 10.4 mph - N/A   Clear
11:55 PM 41.0 °F 32.8 °F 28.4 °F 61% 30.25 in 10.0 mi NNE 16.1 mph 20.7 mph N/A   Clear